Wind_Speed
30 30 31 31 31 31 32 33 35 35 35 33 34 35 35 35 35 35 35 36 37 38 38 39 39 39 40 40 41 41 41 42 43 43 43 44 45 45 46 46 46 48 49 49
31 30 31 32 31 31 32 32 33 34 34 34 34 35 35 36 35 35 36 36 37 37 37 37 37 37 37 38 39 40 41 42 43 43 44 44 45 46 46 46 46 48 48 48
33 31 32 32 30 30 31 31 32 32 32 33 33 34 34 35 36 36 36 36 36 36 36 36 36 36 36 36 37 38 40 42 43 43 43 44 44 45 46 47 48 48 49 50
33 32 32 31 30 29 30 30 31 31 32 33 33 33 34 34 35 36 36 35 35 35 35 35 35 35 35 36 36 37 39 40 41 42 42 43 44 45 46 47 47 48 49 51
32 32 33 30 30 30 30 30 30 31 32 32 33 33 34 35 35 34 34 33 33 33 33 33 34 35 35 36 36 36 37 38 39 41 42 42 44 45 45 46 47 48 49 51
31 32 32 31 30 31 31 31 31 31 31 32 32 33 33 34 34 33 32 32 33 32 32 33 33 34 34 35 36 36 37 38 38 39 40 42 43 44 44 46 47 49 49 49
29 31 31 31 31 31 31 31 31 31 31 32 32 32 32 33 32 32 32 32 32 33 33 33 34 34 34 34 35 35 36 37 38 39 40 40 41 42 43 44 46 46 47 47
28 29 29 28 29 30 30 31 30 30 30 31 32 32 32 32 32 32 32 32 32 32 33 33 33 34 34 35 35 36 36 37 38 39 40 40 41 42 42 43 44 44 45 45
28 28 28 28 28 28 29 29 29 29 29 30 31 31 32 32 32 32 32 32 32 33 33 33 33 34 35 35 36 36 37 37 38 38 39 39 40 41 42 42 43 43 43 42
28 28 28 28 28 28 28 29 28 29 29 30 30 30 31 32 32 33 33 33 33 34 34 34 35 35 35 35 35 36 37 37 37 38 38 39 39 40 40 41 41 41 41 41
28 27 28 27 27 28 28 28 28 29 29 30 30 31 32 32 32 32 33 33 33 34 34 35 35 35 34 34 35 35 36 37 37 38 38 38 39 39 39 39 40 40 41 41
26 25 26 25 26 27 28 28 28 28 28 29 30 31 31 31 31 31 31 31 32 32 32 33 33 33 34 34 34 35 35 36 36 36 37 38 38 39 39 39 40 40 40 41
24 24 25 24 24 25 26 26 26 26 26 27 28 28 28 28 28 28 29 29 30 30 30 31 31 31 32 32 32 33 33 34 34 35 36 36 37 37 38 38 38 39 40 40
24 24 24 23 23 23 24 24 25 25 26 26 27 27 27 27 27 27 27 28 28 29 29 30 30 31 31 31 31 31 31 31 32 33 33 34 35 36 36 37 37 38 38 39
23 23 22 22 22 23 23 23 24 24 25 25 26 26 26 26 26 27 27 27 28 28 28 29 29 30 30 30 30 30 30 30 31 32 33 34 35 35 36 36 36 36 36 37
22 22 22 22 23 23 23 23 24 24 25 25 25 25 25 26 27 27 27 27 28 28 28 28 28 28 28 28 28 29 29 30 31 32 33 34 35 35 35 35 35 35 35 36
20 20 21 22 23 23 23 23 24 24 25 25 26 26 26 26 27 27 27 27 28 28 28 28 28 28 28 28 29 29 30 31 31 32 33 34 34 34 34 34 34 34 34 35
20 20 21 22 22 23 23 23 24 25 25 26 26 26 26 27 27 27 27 27 28 28 28 28 28 28 29 29 30 31 31 32 33 33 33 34 33 33 33 33 34 34 35 35
22 22 22 22 23 23 23 24 24 25 25 25 25 26 26 26 27 27 27 27 27 27 28 28 28 29 30 31 31 32 33 33 33 33 33 33 33 33 33 33 34 34 35 35
22 22 23 23 23 24 25 25 25 25 25 25 26 26 26 26 26 26 27 27 27 28 28 29 29 30 31 31 32 32 32 32 32 32 32 32 32 33 33 33 34 34 34 34
21 22 23 24 24 24 24 24 25 25 25 25 25 25 25 25 26 26 26 26 27 28 29 29 29 30 30 31 32 32 32 31 31 31 31 31 32 32 32 33 33 33 32 32
22 22 22 23 23 23 23 24 24 24 24 24 24 24 25 25 25 26 26 26 27 27 28 28 29 29 30 30 31 31 30 30 30 31 31 31 32 32 32 32 32 32 31 30
22 22 23 23 23 23 23 23 23 23 23 23 24 24 25 25 26 26 25 26 26 27 27 27 28 28 29 30 30 30 30 30 30 30 31 31 31 31 31 31 31 30 30 29
22 22 23 23 23 23 23 23 24 24 24 24 25 25 26 26 26 26 25 26 26 27 27 27 28 29 30 30 30 30 30 30 30 30 30 30 30 30 30 30 30 29 28 27
23 23 23 23 23 23 23 24 24 24 24 25 25 25 25 25 25 25 25 26 26 26 27 28 29 30 30 30 30 30 30 29 29 29 29 29 29 28 28 28 27 26 25 24
22 22 22 22 22 23 23 24 24 24 24 24 24 25 25 25 25 25 25 26 26 27 27 28 29 29 30 30 30 29 29 29 28 28 28 28 27 27 26 26 24 23 22 21
23 23 23 23 23 23 23 23 23 23 24 25 25 25 26 26 26 26 26 27 27 27 28 28 29 29 29 29 29 29 28 28 28 27 27 26 25 24 23 22 20 19 18 17
Wind_Direction
281 281 280 280 280 279 278 278 277 276 276 276 276 277 278 279 279 278 277 276 275 275 275 274 273 272 270 267 266 265 266 266 265 266 265 264 265 266 266 267 266 267 266 264
281 281 281 279 278 279 278 278 278 277 276 275 277 277 278 279 279 279 278 277 276 275 274 274 273 271 270 268 267 267 266 266 266 266 266 266 266 266 267 267 268 268 267 266
281 280 280 278 279 279 280 279 277 276 276 276 278 279 279 279 278 279 280 279 277 276 274 273 273 272 271 270 269 269 268 268 267 267 268 268 268 267 267 269 269 269 268 267
282 281 280 281 280 280 279 278 276 275 276 277 279 280 280 280 280 280 280 279 278 276 275 274 273 273 273 272 271 271 271 270 269 269 269 269 269 269 269 270 270 270 269 269
283 283 282 282 282 281 279 278 277 276 276 277 279 280 280 280 280 281 279 278 278 277 277 276 275 274 274 274 273 273 273 272 272 271 270 270 270 270 271 271 271 272 272 271
283 284 285 286 284 282 281 281 279 278 277 277 279 281 282 282 281 280 279 278 277 277 277 278 277 276 276 274 273 273 273 273 273 273 273 273 272 272 273 273 273 274 274 273
284 285 286 287 286 284 283 283 282 281 279 279 280 281 282 283 283 281 279 279 278 278 278 278 278 278 277 276 275 274 274 274 274 274 275 275 274 275 275 276 276 276 275 274
283 284 287 286 285 283 282 282 282 281 281 281 282 282 283 284 284 282 281 280 279 280 280 279 279 279 279 278 277 276 275 275 276 275 275 275 276 276 276 277 277 277 276 275
283 285 286 285 285 284 282 281 282 281 281 283 283 283 283 283 282 282 282 281 280 280 281 281 281 280 280 280 279 278 277 277 277 277 276 277 277 277 277 278 278 277 277 276
285 286 286 285 285 285 284 284 283 283 282 283 284 284 284 283 282 282 282 282 282 282 282 282 282 282 282 282 281 280 279 279 278 278 279 279 279 279 279 279 279 278 277 277
286 287 285 284 285 285 285 285 284 283 283 283 284 285 285 284 283 283 284 283 282 283 284 284 284 283 283 283 283 283 281 280 280 279 280 280 280 279 280 280 280 279 278 278
289 288 286 285 285 285 286 287 287 286 285 285 285 286 286 285 284 284 284 284 284 285 285 286 286 285 286 286 286 285 284 283 282 281 280 280 281 280 281 281 281 280 280 279
290 289 288 288 287 287 287 287 289 290 290 289 289 289 289 287 287 286 286 286 286 286 287 288 288 288 288 288 288 287 286 285 284 283 282 282 282 282 283 283 282 281 281 280
290 290 289 288 288 288 288 289 291 292 293 292 292 292 290 289 289 289 289 289 289 289 289 289 290 291 290 290 290 289 289 288 286 285 285 284 284 284 285 285 285 284 283 282
289 289 290 290 289 289 290 292 293 294 295 295 294 293 291 290 290 291 291 291 291 291 291 291 292 293 293 292 292 291 290 290 288 287 286 286 286 286 286 286 286 285 285 284
289 289 290 290 289 289 291 293 294 295 294 294 294 293 292 291 292 293 293 292 291 291 292 292 293 294 294 295 295 294 293 292 291 290 289 288 288 288 287 287 287 286 285 285
289 290 290 291 290 291 292 293 294 295 295 294 294 293 293 293 294 293 293 293 293 293 294 295 294 295 295 295 296 296 295 295 293 292 291 291 290 288 288 288 288 288 288 286
288 290 291 291 292 292 293 294 296 296 296 296 296 295 294 294 294 293 293 294 294 294 295 295 295 294 295 296 296 296 296 295 294 293 292 292 290 290 289 288 289 289 289 288
289 290 292 293 294 294 294 295 297 297 297 297 297 297 296 295 294 294 294 295 295 294 295 295 295 295 296 296 296 297 297 296 295 294 293 292 291 291 290 290 289 290 289 289
292 292 293 294 295 295 295 296 297 298 298 298 299 298 297 297 295 295 295 295 295 296 296 296 296 296 297 298 298 298 298 297 296 294 294 293 293 292 291 291 291 291 290 289
295 296 296 295 296 296 297 297 298 299 299 300 300 300 300 299 298 297 297 297 297 297 298 298 299 299 299 300 301 300 299 298 297 296 296 295 294 294 293 292 292 290 289 289
295 296 296 296 296 297 297 298 299 300 301 302 302 302 303 302 301 299 298 298 299 299 300 301 302 302 302 303 303 302 301 300 299 298 297 296 296 296 295 294 293 292 290 289
294 296 296 296 296 297 297 298 300 301 301 303 303 304 305 305 304 302 300 299 300 301 302 303 304 305 305 305 305 304 302 302 302 301 300 298 297 297 296 295 294 292 291 289
297 297 297 298 297 297 297 298 299 299 300 301 303 304 305 306 305 304 303 302 302 302 302 303 304 305 307 307 307 306 304 304 303 303 302 301 300 299 297 296 294 293 291 289
299 299 298 297 297 296 297 297 297 297 299 301 303 305 306 307 307 306 305 305 304 304 304 304 305 306 307 308 307 306 306 305 304 304 305 304 303 300 299 297 296 294 292 290
299 300 299 298 296 295 296 296 297 298 299 302 304 306 307 308 308 307 307 307 307 306 306 306 307 307 307 307 307 307 307 306 305 305 305 305 305 303 301 299 297 296 295 292
298 299 299 299 298 298 298 298 298 298 300 302 304 306 307 307 308 307 306 306 306 306 307 307 308 309 309 308 307 307 307 307 306 306 306 306 306 304 302 300 299 298 298 296
Height
5577 5575 5574 5573 5572 5570 5568 5567 5566 5566 5565 5565 5562 5561 5559 5558 5556 5555 5554 5552 5551 5549 5548 5546 5545 5544 5543 5543 5542 5541 5541 5541 5540 5540 5539 5538 5537 5536 5536 5535 5534 5533 5532 5532
5568 5566 5564 5562 5563 5561 5559 5558 5556 5555 5555 5554 5552 5550 5549 5547 5546 5544 5543 5541 5539 5538 5536 5535 5533 5532 5531 5531 5530 5530 5529 5528 5528 5527 5526 5526 5525 5524 5523 5522 5521 5520 5519 5518
5557 5556 5554 5553 5554 5552 5550 5549 5547 5546 5546 5544 5542 5540 5538 5537 5535 5534 5532 5530 5528 5527 5525 5524 5522 5521 5520 5519 5518 5518 5517 5516 5515 5515 5514 5513 5512 5511 5510 5509 5508 5506 5505 5505
5546 5546 5544 5547 5544 5542 5540 5539 5538 5536 5535 5534 5532 5530 5528 5526 5525 5523 5521 5519 5518 5516 5515 5513 5512 5511 5509 5508 5507 5506 5505 5504 5503 5502 5501 5500 5499 5498 5497 5495 5494 5493 5492 5491
5537 5535 5534 5536 5535 5532 5530 5530 5528 5527 5525 5524 5522 5521 5519 5516 5514 5512 5510 5509 5507 5506 5504 5503 5501 5500 5499 5497 5496 5495 5494 5492 5491 5490 5489 5488 5486 5485 5483 5482 5481 5480 5478 5476
5528 5526 5525 5527 5525 5522 5521 5520 5519 5517 5515 5514 5512 5511 5510 5506 5504 5502 5500 5498 5497 5496 5494 5493 5491 5490 5488 5487 5485 5484 5483 5481 5480 5478 5477 5476 5474 5472 5470 5469 5467 5465 5463 5461
5519 5517 5516 5517 5514 5512 5512 5511 5509 5506 5505 5504 5502 5501 5499 5496 5494 5492 5490 5489 5487 5486 5484 5483 5481 5479 5478 5476 5475 5473 5472 5470 5469 5467 5465 5463 5461 5459 5457 5456 5454 5451 5450 5447
5510 5508 5510 5507 5505 5503 5502 5500 5498 5496 5495 5494 5492 5491 5489 5487 5484 5482 5481 5479 5477 5476 5474 5472 5471 5469 5467 5465 5464 5462 5460 5459 5457 5455 5453 5451 5449 5447 5445 5443 5440 5438 5436 5434
5502 5503 5500 5497 5496 5494 5492 5491 5489 5487 5486 5485 5483 5481 5479 5477 5475 5473 5471 5469 5467 5465 5464 5462 5460 5458 5456 5454 5452 5450 5448 5447 5445 5443 5441 5439 5437 5435 5432 5430 5428 5425 5423 5421
5493 5493 5491 5489 5487 5485 5483 5482 5480 5479 5477 5475 5473 5471 5469 5467 5465 5463 5461 5459 5457 5455 5453 5451 5449 5447 5445 5443 5440 5438 5437 5435 5433 5431 5429 5426 5424 5422 5420 5417 5415 5412 5410 5408
5485 5484 5482 5481 5479 5477 5475 5473 5471 5470 5468 5466 5464 5462 5460 5458 5456 5453 5451 5449 5447 5445 5443 5441 5438 5436 5434 5431 5429 5427 5425 5423 5420 5418 5416 5414 5412 5409 5407 5405 5402 5400 5397 5395
5477 5476 5473 5473 5471 5468 5467 5465 5463 5461 5459 5457 5455 5453 5450 5448 5446 5444 5442 5439 5437 5435 5432 5430 5428 5425 5423 5420 5418 5416 5413 5411 5409 5406 5404 5402 5400 5397 5395 5393 5390 5387 5384 5382
5469 5467 5465 5464 5462 5460 5458 5457 5454 5452 5450 5448 5446 5443 5441 5439 5437 5435 5432 5430 5428 5425 5423 5420 5418 5415 5413 5410 5408 5405 5402 5400 5397 5395 5392 5390 5388 5385 5383 5380 5377 5375 5372 5369
5461 5459 5457 5456 5454 5453 5451 5449 5446 5444 5442 5439 5437 5435 5433 5431 5429 5426 5424 5421 5419 5416 5414 5411 5408 5406 5403 5400 5397 5395 5392 5389 5386 5384 5381 5379 5376 5374 5371 5368 5365 5362 5359 5356
5454 5452 5450 5449 5447 5445 5443 5441 5439 5437 5434 5432 5429 5427 5425 5423 5420 5418 5415 5413 5410 5407 5405 5402 5399 5397 5394 5391 5388 5385 5382 5379 5376 5373 5371 5368 5365 5363 5360 5357 5354 5351 5348 5344
5446 5445 5443 5442 5440 5438 5436 5434 5432 5429 5427 5424 5422 5419 5417 5415 5412 5409 5407 5404 5402 5399 5396 5393 5391 5388 5385 5382 5379 5376 5373 5370 5366 5363 5360 5357 5354 5351 5348 5345 5342 5339 5336 5333
5439 5438 5437 5435 5433 5431 5429 5427 5425 5422 5419 5417 5414 5412 5409 5407 5404 5401 5399 5396 5393 5390 5388 5385 5382 5379 5376 5373 5370 5367 5364 5360 5357 5353 5350 5347 5343 5340 5337 5334 5331 5328 5325 5322
5433 5432 5430 5428 5426 5424 5422 5420 5417 5415 5412 5409 5406 5404 5401 5398 5396 5393 5391 5388 5385 5382 5379 5376 5373 5371 5368 5364 5361 5358 5354 5351 5347 5343 5340 5336 5333 5330 5327 5324 5320 5317 5314 5311
5426 5424 5423 5421 5419 5417 5415 5412 5410 5407 5404 5401 5399 5396 5393 5390 5388 5385 5382 5379 5376 5374 5371 5368 5365 5362 5359 5355 5352 5348 5344 5340 5336 5333 5329 5325 5322 5319 5316 5313 5309 5306 5303 5299
5419 5417 5415 5413 5411 5409 5407 5404 5402 5399 5396 5393 5391 5388 5385 5382 5379 5376 5374 5371 5368 5365 5362 5359 5356 5353 5349 5345 5342 5338 5334 5330 5326 5322 5318 5315 5312 5308 5305 5301 5298 5295 5291 5288
5412 5410 5408 5406 5404 5401 5399 5397 5394 5391 5388 5386 5383 5380 5377 5374 5371 5368 5365 5363 5360 5356 5353 5350 5347 5343 5340 5336 5332 5328 5324 5320 5316 5312 5308 5305 5301 5298 5294 5291 5287 5284 5281 5278
5405 5402 5400 5398 5396 5394 5392 5389 5387 5384 5381 5378 5376 5373 5370 5366 5363 5360 5357 5354 5351 5348 5345 5341 5338 5334 5330 5327 5323 5318 5314 5310 5306 5302 5298 5295 5291 5287 5284 5280 5277 5274 5271 5268
5397 5395 5393 5391 5389 5386 5384 5382 5379 5377 5374 5371 5369 5365 5362 5359 5355 5352 5349 5346 5343 5340 5336 5333 5329 5326 5322 5318 5313 5309 5305 5301 5297 5293 5289 5285 5281 5277 5274 5270 5267 5264 5261 5258
5390 5388 5386 5383 5381 5379 5377 5374 5372 5370 5367 5364 5361 5358 5355 5351 5348 5344 5341 5338 5335 5332 5328 5325 5321 5317 5313 5309 5305 5301 5296 5292 5288 5284 5280 5276 5272 5268 5264 5261 5257 5254 5251 5249
5383 5381 5378 5376 5374 5371 5369 5367 5365 5362 5360 5357 5354 5351 5347 5344 5340 5337 5333 5330 5327 5323 5320 5316 5313 5309 5305 5301 5296 5292 5288 5283 5279 5275 5271 5267 5263 5259 5255 5252 5248 5245 5242 5240
5376 5373 5371 5368 5366 5364 5362 5359 5357 5355 5352 5349 5346 5343 5340 5336 5333 5329 5326 5322 5319 5315 5312 5308 5304 5300 5296 5292 5288 5283 5279 5275 5271 5267 5263 5259 5254 5250 5247 5243 5240 5237 5234 5232
5369 5366 5364 5361 5359 5356 5354 5352 5349 5347 5344 5342 5339 5336 5332 5329 5325 5321 5318 5315 5311 5308 5304 5300 5296 5292 5288 5284 5279 5275 5271 5267 5263 5259 5255 5251 5247 5243 5239 5236 5233 5230 5228 5226